TimeEST,TemperatureF,Dew PointF,Humidity,Sea Level PressureIn,VisibilityMPH,Wind Direction,Wind SpeedMPH,Gust SpeedMPH,PrecipitationIn,Events,Conditions,WindDirDegrees,DateUTC
12:54 AM,55.9,46.9,72,30.09,10.0,SSW,4.6,-,N/A,,Partly Cloudy,210,2012-12-05 05:54:00
1:54 AM,55.9,48.0,75,30.09,10.0,SSW,6.9,-,N/A,,Overcast,210,2012-12-05 06:54:00
2:54 AM,55.0,48.0,77,30.08,10.0,SW,5.8,-,N/A,,Clear,220,2012-12-05 07:54:00
3:54 AM,55.0,48.0,77,30.08,10.0,Calm,Calm,-,N/A,,Clear,0,2012-12-05 08:54:00
4:54 AM,53.1,48.0,83,30.07,10.0,SSW,4.6,-,N/A,,Scattered Clouds,200,2012-12-05 09:54:00
5:54 AM,57.0,48.9,74,30.08,10.0,SW,4.6,-,N/A,,Overcast,230,2012-12-05 10:54:00
6:54 AM,55.9,48.9,77,30.10,10.0,SW,3.5,-,0.00,Rain,Light Rain,220,2012-12-05 11:54:00
7:54 AM,55.0,51.1,86,30.14,10.0,North,5.8,-,0.00,Rain,Light Rain,360,2012-12-05 12:54:00
9:54 AM,57.0,46.9,69,30.19,10.0,Calm,Calm,-,0.01,Rain,Light Rain,0,2012-12-05 14:54:00
10:54 AM,57.0,43.0,59,30.19,10.0,North,3.5,-,0.00,,Overcast,10,2012-12-05 15:54:00
11:54 AM,59.0,37.0,44,30.18,10.0,Variable,3.5,-,N/A,,Partly Cloudy,0,2012-12-05 16:54:00
12:54 PM,61.0,25.0,25,30.17,10.0,Variable,4.6,-,N/A,,Clear,0,2012-12-05 17:54:00
1:54 PM,62.6,24.8,24,30.16,10.0,Variable,4.6,-,N/A,,Clear,0,2012-12-05 18:54:00
2:54 PM,63.0,25.0,24,30.14,10.0,Variable,5.8,-,N/A,,Clear,0,2012-12-05 19:54:00
3:54 PM,62.1,21.9,21,30.15,10.0,Variable,4.6,-,N/A,,Clear,0,2012-12-05 20:54:00
4:54 PM,52.0,23.0,32,30.17,10.0,Calm,Calm,-,N/A,,Clear,0,2012-12-05 21:54:00
5:54 PM,46.9,24.1,41,30.18,10.0,Calm,Calm,-,N/A,,Clear,0,2012-12-05 22:54:00
6:54 PM,48.0,25.0,41,30.20,10.0,Variable,3.5,-,N/A,,Clear,0,2012-12-05 23:54:00
7:54 PM,44.1,26.1,49,30.22,10.0,NW,3.5,-,N/A,,Clear,310,2012-12-06 00:54:00
8:54 PM,37.9,28.0,68,30.24,10.0,Calm,Calm,-,N/A,,Clear,0,2012-12-06 01:54:00
9:54 PM,39.9,26.1,58,30.24,10.0,North,4.6,-,N/A,,Clear,10,2012-12-06 02:54:00
10:54 PM,39.9,25.0,55,30.25,10.0,North,3.5,-,N/A,,Clear,350,2012-12-06 03:54:00
11:54 PM,34.0,25.0,70,30.25,10.0,NE,6.9,-,N/A,,Clear,50,2012-12-06 04:54:00